EW0292 Weather Reports


time (UTC)temp
C
wind
direction
speed
KPH
gust
KPH
rain 1hr
cm
rain 24hr
cm
rain mn
cm
humidity
%
barometer
mb
20260510153511 27 144 1.6 8.0 0.00 0.00 0.00 60 1012.8
20260510153009 27 176 3.2 8.0 0.00 0.00 0.00 59 1012.8
20260510152510 27 155 0.0 6.4 0.00 0.00 0.00 61 1012.7
20260510152006 27 167 1.6 4.8 0.00 0.00 0.00 62 1012.8
20260510151507 27 269 0.0 4.8 0.00 0.00 0.00 61 1012.8
20260510151004 26 133 0.0 4.8 0.00 0.00 0.00 62 1012.8
20260510150503 26 247 1.6 8.0 0.00 0.00 0.00 62 1012.7
20260510150002 26 231 3.2 8.0 0.00 0.00 0.00 61 1012.7
20260510145500 26 230 0.0 3.2 0.00 0.00 0.00 62 1012.8
20260510145059 26 200 0.0 4.8 0.00 0.00 0.00 62 1012.8
20260510144611 25 134 0.0 4.8 0.00 0.00 0.00 62 1012.7
20260510144100 25 216 0.0 6.4 0.00 0.00 0.00 63 1012.7
20260510143556 25 140 1.6 6.4 0.00 0.00 0.00 63 1012.7
20260510143108 25 134 0.0 6.4 0.00 0.00 0.00 62 1012.6
20260510142555 25 144 0.0 6.4 0.00 0.00 0.00 62 1012.6
20260510142056 25 223 0.0 8.0 0.00 0.00 0.00 62 1012.7
20260510141600 24 98 0.0 8.0 0.00 0.00 0.00 63 1012.6
20260510141052 24 143 0.0 6.4 0.00 0.00 0.00 63 1012.6
20260510140551 24 138 0.0 1.6 0.00 0.00 0.00 62 1012.6
20260510140051 23 102 0.0 3.2 0.00 0.00 0.00 62 1012.6
20260510135550 23 229 0.0 4.8 0.00 0.00 0.00 62 1012.5
20260510135051 23 98 1.6 4.8 0.00 0.00 0.00 62 1012.6
20260510134604 23 95 0.0 3.2 0.00 0.00 0.00 61 1012.7
20260510134050 22 116 0.0 3.2 0.00 0.00 0.00 61 1012.7
20260510133551 22 89 0.0 4.8 0.00 0.00 0.00 61 1012.7
20260510133049 22 82 0.0 4.8 0.00 0.00 0.00 61 1012.6
20260510132549 22 91 0.0 3.2 0.00 0.00 0.00 60 1012.6
20260510132049 21 56 0.0 4.8 0.00 0.00 0.00 60 1012.6
20260510131548 21 82 0.0 4.8 0.00 0.00 0.00 59 1012.5
20260510131048 21 90 0.0 3.2 0.00 0.00 0.00 58 1012.4
20260510130547 20 98 0.0 4.8 0.00 0.00 0.00 57 1012.4
20260510130047 20 109 0.0 4.8 0.00 0.00 0.00 59 1012.3
20260510125545 20 91 0.0 1.6 0.00 0.00 0.00 62 1012.4
20260510125047 19 75 0.0 1.6 0.00 0.00 0.00 62 1012.4
20260510124554 19 89 0.0 1.6 0.00 0.00 0.00 63 1012.4
20260510124045 18 74 0.0 3.2 0.00 0.00 0.00 63 1012.4
20260510123545 18 321 0.0 3.2 0.00 0.00 0.00 63 1012.4
20260510123045 18 102 0.0 1.6 0.00 0.00 0.00 63 1012.4
20260510122545 18 116 0.0 0.0 0.00 0.00 0.00 62 1012.2
20260510122043 18 116 0.0 0.0 0.00 0.00 0.00 62 1012.1
20260510121543 18 116 0.0 0.0 0.00 0.00 0.00 61 1012.1
20260510121042 18 116 0.0 0.0 0.00 0.00 0.00 61 1012.0
20260510120541 18 116 0.0 0.0 0.00 0.00 0.00 60 1012.0
20260510120041 18 116 0.0 0.0 0.00 0.00 0.00 60 1012.0
20260510115540 18 116 0.0 0.0 0.00 0.00 0.00 60 1011.9
20260510115040 18 116 0.0 0.0 0.00 0.00 0.00 60 1011.9
20260510114541 18 116 0.0 0.0 0.00 0.00 0.00 60 1011.9
20260510114040 18 116 0.0 0.0 0.00 0.00 0.00 59 1011.9
20260510113539 18 116 0.0 0.0 0.00 0.00 0.00 59 1011.9
20260510113039 18 116 0.0 0.0 0.00 0.00 0.00 59 1011.8
20260510112539 18 116 0.0 0.0 0.00 0.00 0.00 59 1011.8
20260510112043 18 116 0.0 0.0 0.00 0.00 0.00 59 1011.7
20260510111552 18 116 0.0 0.0 0.00 0.00 0.00 59 1011.8
20260510111037 18 117 0.0 0.0 0.00 0.00 0.00 59 1011.8
20260510110536 18 117 0.0 0.0 0.00 0.00 0.00 59 1011.8
20260510110041 18 117 0.0 0.0 0.00 0.00 0.00 59 1011.8
20260510105538 18 117 0.0 0.0 0.00 0.00 0.00 59 1011.8
20260510105035 18 117 0.0 0.0 0.00 0.00 0.00 59 1011.7
20260510104543 18 117 0.0 1.6 0.00 0.00 0.00 59 1011.7
20260510104037 18 117 0.0 0.0 0.00 0.00 0.00 59 1011.5
20260510103533 18 117 0.0 0.0 0.00 0.00 0.00 59 1011.5
20260510103034 18 117 0.0 1.6 0.00 0.00 0.00 59 1011.6
20260510102533 18 117 0.0 1.6 0.00 0.00 0.00 59 1011.6
20260510102031 18 117 0.0 0.0 0.00 0.00 0.00 59 1011.5
20260510101533 18 117 0.0 0.0 0.00 0.00 0.00 59 1011.5
20260510101030 18 117 0.0 0.0 0.00 0.00 0.00 60 1011.4
20260510100532 19 117 0.0 0.0 0.00 0.00 0.00 60 1011.3
20260510100028 19 117 0.0 0.0 0.00 0.00 0.00 60 1011.3
20260510095528 19 117 0.0 0.0 0.00 0.00 0.00 60 1011.3
20260510095028 19 117 0.0 0.0 0.00 0.00 0.00 60 1011.3
20260510094531 19 117 0.0 0.0 0.00 0.00 0.00 60 1011.3
20260510094026 19 117 0.0 0.0 0.00 0.00 0.00 60 1011.3
20260510093526 19 117 0.0 0.0 0.00 0.00 0.00 60 1011.3
20260510093026 19 117 0.0 0.0 0.00 0.00 0.00 61 1011.2
20260510092625 19 117 0.0 0.0 0.00 0.00 0.00 62 1011.2
20260510092024 19 117 0.0 0.0 0.00 0.00 0.00 62 1011.0
20260510091527 19 117 0.0 0.0 0.00 0.00 0.00 63 1011.0
20260510091024 20 117 0.0 0.0 0.00 0.00 0.00 63 1011.1
20260510090523 20 117 0.0 0.0 0.00 0.00 0.00 63 1011.2
20260510090023 20 117 0.0 0.0 0.00 0.00 0.00 63 1011.2
20260510085522 20 117 0.0 1.6 0.00 0.00 0.00 63 1011.1
20260510085021 20 117 0.0 1.6 0.00 0.00 0.00 64 1011.1
20260510084521 20 117 0.0 0.0 0.00 0.00 0.00 64 1011.1
20260510084021 20 117 0.0 0.0 0.00 0.00 0.00 64 1011.2
20260510083523 20 117 0.0 0.0 0.00 0.00 0.00 65 1011.2
20260510083020 20 117 0.0 0.0 0.00 0.00 0.00 65 1011.2
20260510082520 20 117 0.0 0.0 0.00 0.00 0.00 66 1011.2
20260510082018 20 117 0.0 0.0 0.00 0.00 0.00 67 1011.2
20260510081518 20 117 0.0 0.0 0.00 0.00 0.00 67 1011.1
20260510081017 20 117 0.0 0.0 0.00 0.00 0.00 69 1011.0
20260510080517 21 117 0.0 0.0 0.00 0.00 0.00 70 1011.0
20260510080017 21 117 0.0 0.0 0.00 0.00 0.00 70 1011.0
20260510075514 21 117 0.0 0.0 0.00 0.00 0.00 70 1011.1
20260510075013 21 117 0.0 0.0 0.00 0.00 0.00 71 1011.1
20260510074511 21 117 0.0 0.0 0.00 0.00 0.00 71 1011.1
20260510074010 22 117 0.0 0.0 0.00 0.00 0.00 71 1011.0
20260510073509 22 117 0.0 1.6 0.00 0.00 0.00 70 1011.1
20260510073008 22 117 0.0 1.6 0.00 0.00 0.00 70 1011.0
20260510072508 22 117 0.0 1.6 0.00 0.00 0.00 70 1011.0
20260510072007 22 117 0.0 1.6 0.00 0.00 0.00 70 1011.0
20260510071507 22 117 0.0 1.6 0.00 0.00 0.00 70 1011.1
20260510071007 22 137 0.0 0.0 0.00 0.00 0.00 70 1011.1
20260510070506 22 119 0.0 1.6 0.00 0.00 0.00 70 1011.1
20260510070007 22 138 0.0 1.6 0.00 0.00 0.00 70 1011.2
20260510065506 22 136 0.0 1.6 0.00 0.00 0.00 70 1011.1
20260510065004 22 138 0.0 1.6 0.00 0.00 0.00 70 1011.2
20260510064507 22 125 0.0 3.2 0.00 0.00 0.00 70 1011.2
20260510064005 22 113 0.0 3.2 0.00 0.00 0.00 69 1011.3
20260510063502 23 153 0.0 3.2 0.00 0.00 0.00 69 1011.2
20260510063002 23 115 0.0 3.2 0.00 0.00 0.00 69 1011.2
20260510062502 23 167 0.0 4.8 0.00 0.00 0.00 69 1011.2
20260510062001 23 145 0.0 4.8 0.00 0.00 0.00 69 1011.2
20260510061501 23 144 0.0 1.6 0.00 0.00 0.00 69 1011.2
20260510061100 23 127 0.0 1.6 0.00 0.00 0.00 68 1011.2
20260510060559 23 117 0.0 1.6 0.00 0.00 0.00 68 1011.1
20260510060101 23 139 0.0 3.2 0.00 0.00 0.00 68 1011.1
20260510055556 23 138 0.0 3.2 0.00 0.00 0.00 68 1011.1
20260510055055 24 125 0.0 4.8 0.00 0.00 0.00 67 1010.9
20260510054558 24 200 0.0 4.8 0.00 0.00 0.00 67 1011.0
20260510054053 24 128 0.0 6.4 0.00 0.00 0.00 66 1010.9
20260510053553 24 119 0.0 4.8 0.00 0.00 0.00 66 1010.8
20260510053058 24 156 0.0 8.0 0.00 0.00 0.00 66 1010.9
20260510052552 24 110 0.0 8.0 0.00 0.00 0.00 66 1010.8
20260510052051 24 159 1.6 9.7 0.00 0.00 0.00 66 1010.8
20260510051624 25 114 3.2 9.7 0.00 0.00 0.00 66 1010.8
20260510051051 25 139 0.0 8.0 0.00 0.00 0.00 65 1010.7
20260510050548 25 143 0.0 9.7 0.00 0.00 0.00 65 1010.7
20260510050047 25 145 1.6 8.0 0.00 0.00 0.00 65 1010.7
20260510045547 25 119 1.6 8.0 0.00 0.00 0.00 65 1010.7
20260510045045 25 104 1.6 8.0 0.00 0.00 0.00 65 1010.6
20260510044548 25 127 1.6 6.4 0.00 0.00 0.00 66 1010.6
20260510044046 24 131 0.0 1.6 0.00 0.00 0.00 66 1010.7
20260510043546 24 91 0.0 1.6 0.00 0.00 0.00 66 1010.7
20260510043115 24 106 0.0 1.6 0.00 0.00 0.00 65 1010.7
20260510042547 25 121 0.0 0.0 0.00 0.00 0.00 64 1010.7
20260510042047 25 112 0.0 1.6 0.00 0.00 0.00 64 1010.6
20260510041551 25 108 0.0 1.6 0.00 0.00 0.00 64 1010.6
20260510041045 25 114 0.0 3.2 0.00 0.00 0.00 63 1010.5
20260510040545 25 125 0.0 4.8 0.00 0.00 0.00 64 1010.5
20260510040044 25 131 0.0 1.6 0.00 0.00 0.00 64 1010.4
20260510035543 25 115 0.0 1.6 0.00 0.00 0.00 64 1010.4
20260510035046 25 134 0.0 1.6 0.00 0.00 0.00 64 1010.4
20260510034550 25 129 0.0 1.6 0.00 0.00 0.00 64 1010.3
20260510034042 25 142 0.0 1.6 0.00 0.00 0.00 64 1010.3
20260510033545 25 121 0.0 1.6 0.00 0.00 0.00 64 1010.2
20260510033048 25 120 0.0 1.6 0.00 0.00 0.00 64 1010.2
20260510032543 25 101 0.0 1.6 0.00 0.00 0.00 64 1010.1
20260510032042 25 111 0.0 1.6 0.00 0.00 0.00 64 1010.1
20260510031613 25 112 0.0 1.6 0.00 0.00 0.00 64 1010.0
20260510031042 25 108 0.0 3.2 0.00 0.00 0.00 64 1010.0
20260510030542 25 101 0.0 3.2 0.00 0.00 0.00 64 1009.9
20260510030042 25 120 0.0 1.6 0.00 0.00 0.00 64 1009.9
20260510025541 25 120 0.0 0.0 0.00 0.00 0.00 64 1009.8
20260510025041 25 107 0.0 0.0 0.00 0.00 0.00 64 1009.8
20260510024543 26 107 0.0 0.0 0.00 0.00 0.00 63 1009.7
20260510024041 26 107 0.0 0.0 0.00 0.00 0.00 63 1009.7
20260510023541 26 109 0.0 0.0 0.00 0.00 0.00 62 1009.6
20260510023048 26 109 0.0 0.0 0.00 0.00 0.00 62 1009.5
20260510022541 26 108 0.0 3.2 0.00 0.00 0.00 62 1009.4
20260510022040 26 110 0.0 3.2 0.00 0.00 0.00 61 1009.3
20260510021544 26 114 0.0 1.6 0.00 0.00 0.00 61 1009.2
20260510021040 26 144 0.0 0.0 0.00 0.00 0.00 61 1009.1
20260510020543 27 138 0.0 0.0 0.00 0.00 0.00 60 1008.9
20260510020040 27 138 0.0 0.0 0.00 0.00 0.00 59 1008.8
20260510015539 27 117 0.0 1.6 0.00 0.00 0.00 59 1008.7
20260510015040 27 117 0.0 1.6 0.00 0.00 0.00 58 1008.5
20260510014540 28 150 0.0 0.0 0.00 0.00 0.00 57 1008.5
20260510014040 28 149 0.0 1.6 0.00 0.00 0.00 57 1008.4
20260510013640 28 123 0.0 1.6 0.00 0.00 0.00 56 1008.3
20260510013041 28 123 0.0 3.2 0.00 0.00 0.00 55 1008.3
20260510012541 29 131 0.0 6.4 0.00 0.00 0.00 55 1008.2
20260510012039 29 143 0.0 6.4 0.00 0.00 0.00 54 1008.2
20260510011553 29 129 0.0 3.2 0.00 0.00 0.00 54 1008.2
20260510011038 30 153 0.0 3.2 0.00 0.00 0.00 53 1008.2
20260510010540 30 145 0.0 4.8 0.00 0.00 0.00 53 1008.2
20260510010045 30 131 0.0 6.4 0.00 0.00 0.00 52 1008.2
20260510005538 30 132 0.0 6.4 0.00 0.00 0.00 52 1008.2
20260510005037 30 94 3.2 6.4 0.00 0.00 0.00 51 1008.2
20260510004537 31 131 1.6 11.3 0.00 0.00 0.00 50 1008.1
20260510004041 31 108 3.2 11.3 0.00 0.00 0.00 49 1008.1
20260510003537 31 126 1.6 6.4 0.00 0.00 0.00 47 1008.1
20260510003037 32 162 0.0 9.7 0.00 0.00 0.00 47 1008.1
20260510002536 32 113 3.2 9.7 0.00 0.00 0.00 45 1008.1
20260510002037 33 181 1.6 6.4 0.00 0.00 0.00 44 1008.1
20260510001538 33 117 0.0 3.2 0.00 0.00 0.00 43 1008.1
20260510001036 33 122 0.0 0.0 0.00 0.00 0.00 40 1008.0
20260510000535 33 149 0.0 0.0 0.00 0.00 0.00 42 1008.0
20260510000034 33 149 0.0 3.2 0.00 0.00 0.00 42 1008.0
20260509235534 33 165 0.0 3.2 0.00 0.00 0.00 42 1008.0
20260509235035 33 148 0.0 0.0 0.00 0.00 0.00 45 1008.0
20260509234536 32 113 0.0 1.6 0.00 0.00 0.00 44 1008.0
20260509234033 33 113 0.0 1.6 0.00 0.00 0.00 43 1008.0
20260509233535 33 143 0.0 6.4 0.00 0.00 0.00 44 1007.9
20260509233033 32 116 0.0 6.4 0.00 0.00 0.00 43 1007.9
20260509232533 33 110 1.6 4.8 0.00 0.00 0.00 44 1007.9
20260509232032 33 132 0.0 4.8 0.00 0.00 0.00 44 1007.9
20260509231533 33 88 0.0 6.4 0.00 0.00 0.00 44 1007.8
20260509231032 33 108 0.0 4.8 0.00 0.00 0.00 44 1007.9
20260509230531 33 105 0.0 3.2 0.00 0.00 0.00 43 1007.9
20260509230031 33 20 0.0 4.8 0.00 0.00 0.00 46 1007.9
20260509225530 33 205 0.0 4.8 0.00 0.00 0.00 46 1007.9
20260509225028 33 134 1.6 6.4 0.00 0.00 0.00 46 1007.8
20260509224529 32 238 0.0 4.8 0.00 0.00 0.00 44 1007.9
20260509224029 32 75 0.0 4.8 0.00 0.00 0.00 45 1007.8
20260509223528 32 124 0.0 4.8 0.00 0.00 0.00 44 1007.8
20260509223029 33 40 0.0 3.2 0.00 0.00 0.00 43 1007.8
20260509222530 32 226 0.0 3.2 0.00 0.00 0.00 48 1007.8
20260509222027 32 253 0.0 6.4 0.00 0.00 0.00 46 1007.8
20260509221531 32 321 1.6 6.4 0.00 0.00 0.00 45 1007.9
20260509221027 32 286 0.0 1.6 0.00 0.00 0.00 46 1008.0
20260509220525 32 138 0.0 4.8 0.00 0.00 0.00 47 1008.0
20260509220025 33 134 1.6 4.8 0.00 0.00 0.00 44 1008.0
20260509215528 33 200 0.0 4.8 0.00 0.00 0.00 46 1008.0
20260509215024 33 30 0.0 4.8 0.00 0.00 0.00 47 1008.1
20260509214523 33 44 0.0 3.2 0.00 0.00 0.00 47 1008.1
20260509214024 32 352 0.0 4.8 0.00 0.00 0.00 46 1008.2
20260509213523 32 11 0.0 4.8 0.00 0.00 0.00 47 1008.2
20260509213024 32 66 0.0 4.8 0.00 0.00 0.00 48 1008.3
20260509212521 32 260 0.0 4.8 0.00 0.00 0.00 46 1008.3
20260509212021 32 272 0.0 4.8 0.00 0.00 0.00 46 1008.3
20260509211547 33 160 1.6 6.4 0.00 0.00 0.00 45 1008.3
20260509211020 32 280 1.6 6.4 0.00 0.00 0.00 50 1008.4
20260509210518 32 24 0.0 3.2 0.00 0.00 0.00 46 1008.5
20260509210017 32 226 0.0 8.0 0.00 0.00 0.00 47 1008.7
20260509205516 32 231 0.0 8.0 0.00 0.00 0.00 46 1008.8
20260509205019 32 240 0.0 6.4 0.00 0.00 0.00 47 1008.8
20260509204515 32 264 0.0 6.4 0.00 0.00 0.00 49 1008.9
20260509204015 32 302 1.6 6.4 0.00 0.00 0.00 49 1009.0
20260509203514 32 94 0.0 4.8 0.00 0.00 0.00 51 1009.2
20260509203032 32 49 1.6 4.8 0.00 0.00 0.00 49 1009.3
20260509202514 32 318 0.0 3.2 0.00 0.00 0.00 49 1009.3
20260509202016 32 255 0.0 3.2 0.00 0.00 0.00 52 1009.4
20260509201513 32 156 0.0 4.8 0.00 0.00 0.00 49 1009.5
20260509201014 32 97 1.6 4.8 0.00 0.00 0.00 49 1009.6
20260509200512 32 233 0.0 8.0 0.00 0.00 0.00 51 1009.7
20260509200011 32 302 1.6 8.0 0.00 0.00 0.00 51 1009.8
20260509195512 31 263 0.0 4.8 0.00 0.00 0.00 52 1009.8
20260509195010 31 311 0.0 4.8 0.00 0.00 0.00 51 1009.8
20260509194511 32 284 0.0 8.0 0.00 0.00 0.00 52 1009.9
20260509194011 32 285 0.0 8.0 0.00 0.00 0.00 52 1010.0
20260509193510 32 288 1.6 6.4 0.00 0.00 0.00 52 1010.0
20260509193010 31 295 0.0 8.0 0.00 0.00 0.00 52 1010.1
20260509192509 31 237 0.0 8.0 0.00 0.00 0.00 54 1010.2
20260509192009 31 88 0.0 6.4 0.00 0.00 0.00 53 1010.2
20260509191512 31 188 3.2 6.4 0.00 0.00 0.00 50 1010.3
20260509191013 31 251 1.6 6.4 0.00 0.00 0.00 53 1010.4
20260509190509 31 279 1.6 9.7 0.00 0.00 0.00 56 1010.4
20260509190007 31 236 1.6 9.7 0.00 0.00 0.00 57 1010.5
20260509185504 31 215 1.6 9.7 0.00 0.00 0.00 57 1010.6
20260509185003 30 284 0.0 1.6 0.00 0.00 0.00 59 1010.7
20260509184503 30 266 0.0 4.8 0.00 0.00 0.00 56 1010.7
20260509184004 30 286 0.0 4.8 0.00 0.00 0.00 57 1010.7
20260509183504 30 195 0.0 6.4 0.00 0.00 0.00 56 1010.7
20260509183010 30 224 0.0 8.0 0.00 0.00 0.00 56 1010.8
20260509182503 30 306 3.2 8.0 0.00 0.00 0.00 55 1011.0
20260509182101 30 260 1.6 6.4 0.00 0.00 0.00 58 1011.0
20260509181610 30 295 1.6 6.4 0.00 0.00 0.00 53 1011.0
20260509181059 30 289 1.6 6.4 0.00 0.00 0.00 49 1011.0
20260509180559 29 313 0.0 9.7 0.00 0.00 0.00 48 1011.1
20260509180058 28 240 3.2 9.7 0.00 0.00 0.00 49 1011.2
20260509175557 29 307 0.0 6.4 0.00 0.00 0.00 49 1011.1
20260509175057 30 215 0.0 8.0 0.00 0.00 0.00 46 1011.2
20260509174556 29 214 1.6 12.9 0.00 0.00 0.00 48 1011.1
20260509174056 29 236 1.6 16.1 0.00 0.00 0.00 47 1011.2
20260509173555 29 242 4.8 16.1 0.00 0.00 0.00 47 1011.3
20260509173107 29 273 1.6 12.9 0.00 0.00 0.00 48 1011.3
20260509172555 28 141 1.6 12.9 0.00 0.00 0.00 49 1011.4
20260509172053 28 233 1.6 11.3 0.00 0.00 0.00 49 1011.4
20260509171603 28 231 3.2 11.3 0.00 0.00 0.00 50 1011.4
20260509171050 28 185 3.2 11.3 0.00 0.00 0.00 51 1011.4
20260509170548 27 212 3.2 11.3 0.00 0.00 0.00 52 1011.5
20260509170048 27 242 0.0 4.8 0.00 0.00 0.00 56 1011.6
20260509165546 26 208 0.0 9.7 0.00 0.00 0.00 54 1011.6
20260509165048 27 195 0.0 6.4 0.00 0.00 0.00 55 1011.7
20260509164547 27 199 0.0 6.4 0.00 0.00 0.00 55 1011.8
20260509164047 27 255 0.0 8.0 0.00 0.00 0.00 55 1011.8
20260509163548 27 240 0.0 6.4 0.00 0.00 0.00 56 1011.8
20260509163056 27 257 1.6 6.4 0.00 0.00 0.00 55 1011.9
20260509162545 26 213 0.0 6.4 0.00 0.00 0.00 55 1011.9
20260509162046 27 104 0.0 8.0 0.00 0.00 0.00 55 1012.0
20260509161544 27 124 0.0 6.4 0.00 0.00 0.00 56 1012.1
20260509161044 27 197 0.0 6.4 0.00 0.00 0.00 55 1012.1
20260509160541 26 217 0.0 9.7 0.00 0.00 0.00 57 1012.0
20260509160040 26 164 1.6 9.7 0.00 0.00 0.00 58 1011.9
20260509155538 25 198 1.6 11.3 0.00 0.00 0.00 59 1012.0
20260509155039 25 229 0.0 11.3 0.00 0.00 0.00 59 1012.1
20260509154537 24 141 0.0 1.6 0.00 0.00 0.00 59 1012.3
20260509154035 24 350 0.0 1.6 0.00 0.00 0.00 59 1012.4